Regional Weather Roundup
Issued by NWS

Home | Current Version | Previous Version | Graphics & Text | Print | Product List | Glossary On
Versions: 1 2 3 4 5 6 7 8 9 10 11 12 13 14 15 16 17 18 19 20 21 22 23 24 25 26 27 28 29 30 31 32 33 34 35 36 37 38 39 40 41 42 43 44 45 46 47 48 49 50
000
ASUS45 KSLC 020210
RWRUT

UTAH REGIONAL WEATHER ROUNDUP
NATIONAL WEATHER SERVICE SALT LAKE CITY UT
800 PM MDT SAT AUG 01 2015

UTZ001>011-023>025-020300-

NORTHERN UTAH

CITY           SKY/WX    TMP DP  RH WIND       PRES   REMARKS
BRIGHAM CITY   MOCLDY    93  17   6 NE7       29.98S
HILL AFB       PTCLDY    86  40  19 W6        30.04S
LOGAN          CLEAR     87  41  19 N5        30.00S
OGDEN          PTCLDY    87  41  19 W5        30.01R
PROVO AIRPORT  PTCLDY    86  45  23 SW3       30.02S
SALT LAKE CITY MOCLDY    90  31  12 W8        29.98F
VERNAL         MOCLDY    87  30  13 CALM      30.04S
WENDOVER       PTCLDY    91  28  10 SE3       30.01S
HEBER CITY     MOCLDY    82  37  20 W5        30.09S
WEST JORDAN    CLEAR     88  37  16 CALM      30.03F

$$

UTZ012>022-026-027-020300-

SOUTHERN/CENTRAL UTAH

CITY           SKY/WX    TMP DP  RH WIND       PRES   REMARKS
BLANDING       PTCLDY    75  57  54 S3        30.23S
BRYCE CANYON   MOCLDY    70  46  42 SE7       30.28F
CEDAR CITY     CLOUDY    74  51  44 SW12      30.13F
DELTA          MOCLDY    90  27  10 NW3       30.00F
HANKSVILLE     MOCLDY    88  48  25 SE8       30.01S
MILFORD        CLOUDY    88  28  11 E7        30.02F
MOAB/CYNLANDS  CLEAR     88  50  27 SE10      30.00S
PRICE          MOCLDY    87  39  18 S5        30.09R
ST GEORGE      MOCLDY    84  54  34 SW12      29.97F
KANAB          CLOUDY    79  57  47 CALM      30.14F

$$

REGIONAL REPORTS     COLORADO/ARIZONA

CITY           SKY/WX    TMP DP  RH WIND       PRES   REMARKS
CRAIG, CO      CLOUDY    78  42  27 SW8       30.14R
GRAND JUNCTION CLOUDY    82  44  26 NE17G24   30.06S
RIFLE          CLOUDY    82  42  24 SW15      30.12R
MONTROSE       CLOUDY    75  48  38 S16G28    30.20R
CORTEZ         CLEAR     73  61  65 E3        30.16S
PAGE, AZ       PTCLDY    89  49  25 VRB5      30.00S
GRAND CANYON   MOCLDY    71  54  54 N3        30.21F
KINGMAN        CLEAR     81  54  39 N12       30.01F
FLAGSTAFF      PTCLDY    66  54  65 CALM      30.26R THUNDER

$$

REGIONAL REPORTS    NEVADA/IDAHO/WYOMING

CITY           SKY/WX    TMP DP  RH WIND       PRES   REMARKS
LAS VEGAS, NV  CLOUDY    87  53  31 NW16      29.88F
ELY            CLOUDY    80  35  19 S13       30.16S
ELKO           PTCLDY    92  26   9 N6        30.03F
POCATELLO, ID  CLEAR     88  37  16 CALM      30.01F
BURLEY         MOCLDY    82  48  30 SW3       29.97F
EVANSTON, WY   PTCLDY    79  22  12 N8        30.23S
ROCK SPRINGS   PTCLDY    79  28  15 W7        30.18R
KEMMERER       PTCLDY    79  23  12 NW12      30.24R

$$



USA.gov is the U.S. government's official web portal to all federal, state and local government web resources and services.